Overview Statistics Trail Chart Weather Telemetry Raw packets
 

This is the latest recevied weather packets stored in our database for station/object N5ATR. If no packets are shown the sender has not sent any weather packets the latest 10 day(s).

<< 11 12 13 14 15 16 17 >>
Time Temp. Humidity Pressure Rain* Wind** Luminosity Snow
1788615385 17.22° C 74% 1023 hPa 0 mm - 45 W/m² -
1788615084 16.67° C 76% 1023 hPa 0 mm - 47 W/m² -
1788614784 16.67° C 76% 1023 hPa 0 mm - 41 W/m² -
1788614479 16.11° C 77% 1023 hPa 0 mm - 27 W/m² -
1788614174 15.56° C 77% 1022.6 hPa 0 mm - 26 W/m² -
1788613870 15° C 78% 1022.8 hPa 0 mm - 18 W/m² -
1788613569 15° C 79% 1022.6 hPa 0 mm - 15 W/m² -
1788613264 15° C 79% 1022.6 hPa 0 mm - 11 W/m² -
1788612963 15° C 79% 1022.3 hPa 0 mm - 8 W/m² -
1788612659 15° C 80% 1022.6 hPa 0 mm - 5 W/m² -
1788612355 14.44° C 80% 1022.3 hPa 0 mm - 3 W/m² -
1788612051 14.44° C 82% 1022.5 hPa 0 mm - 1 W/m² -
1788611746 13.89° C 83% 1022.5 hPa 0 mm - 1 W/m² -
1788611443 13.89° C 83% 1022.4 hPa 0 mm - 0 W/m² -
1788611143 14.44° C 82% 1022.5 hPa 0 mm - 0 W/m² -
1788610838 14.44° C 82% 1022.5 hPa 0 mm - 0 W/m² -
1788610532 14.44° C 82% 1022.6 hPa 0 mm - 0 W/m² -
1788610227 15° C 81% 1022.4 hPa 0 mm - 0 W/m² -
1788609926 15° C 81% 1022.4 hPa 0 mm - 0 W/m² -
1788609622 15° C 81% 1022.5 hPa 0 mm - 0 W/m² -
1788609334 15° C 81% 1022.6 hPa 0 mm - 0 W/m² -
1788609016 15° C 81% 1022.4 hPa 0 mm - 0 W/m² -
1788608715 15° C 80% 1022.4 hPa 0 mm - 0 W/m² -
1788608414 15.56° C 79% 1022.2 hPa 0 mm - 0 W/m² -
1788608109 15.56° C 79% 1021.9 hPa 0 mm - 0 W/m² -

* Rain latest hour (hover to see other rain measurements)
** Current wind speed in m/s (hover to see current wind gust speed)